Back to catalog

STARLINK-30268

AliveCommunicationsVLEO
NORAD 57531·PAYLOAD·🇺🇸 United States

Launched Aug 8, 2023 from Vandenberg Space Force Base

Loading…

Next Passes (next 24 hours)

TLE

FreshSource: CelesTrak SupGP

Epoch: Sep 14, 2026, 13:48 UTC

1 57531C 23115L   26257.57548611 -.00003434  00000+0 -12439-3 0  2576
2 57531  43.0038  15.2653 0001341 265.7247 125.3324 15.27576008    17

Track STARLINK-30268 in real time with AllMySat

Download on the App Store